TimeCST,TemperatureF,Dew PointF,Humidity,Sea Level PressureIn,VisibilityMPH,Wind Direction,Wind SpeedMPH,Gust SpeedMPH,PrecipitationIn,Events,Conditions,WindDirDegrees,DateUTC
12:53 AM,44.1,19.9,38,29.95,10.0,NNE,10.4,-,N/A,,Partly Cloudy,20,2014-01-23 06:53:00
1:53 AM,42.1,19.9,41,29.99,10.0,North,8.1,-,N/A,,Scattered Clouds,350,2014-01-23 07:53:00
2:53 AM,39.0,21.0,49,30.02,10.0,NNW,9.2,-,N/A,,Clear,330,2014-01-23 08:53:00
3:53 AM,39.0,21.0,49,30.04,10.0,NNW,8.1,-,N/A,,Partly Cloudy,340,2014-01-23 09:53:00
4:53 AM,37.9,21.0,51,30.06,10.0,North,6.9,-,N/A,,Scattered Clouds,360,2014-01-23 10:53:00
5:53 AM,37.9,21.0,51,30.10,10.0,NE,10.4,-,N/A,,Overcast,40,2014-01-23 11:53:00
6:53 AM,37.0,19.9,50,30.15,10.0,NE,10.4,-,N/A,,Overcast,40,2014-01-23 12:53:00
7:53 AM,35.1,19.0,52,30.22,10.0,NNE,13.8,-,N/A,,Scattered Clouds,30,2014-01-23 13:53:00
8:53 AM,35.1,19.9,54,30.27,10.0,NE,12.7,-,N/A,,Scattered Clouds,40,2014-01-23 14:53:00
9:53 AM,35.1,19.9,54,30.32,10.0,NE,15.0,-,N/A,,Mostly Cloudy,50,2014-01-23 15:53:00
10:53 AM,36.0,18.0,48,30.37,10.0,NNE,15.0,-,N/A,,Mostly Cloudy,30,2014-01-23 16:53:00
11:53 AM,36.0,16.0,44,30.39,10.0,NE,17.3,-,N/A,,Overcast,40,2014-01-23 17:53:00
12:53 PM,37.9,16.0,41,30.39,10.0,NE,17.3,24.2,N/A,,Mostly Cloudy,50,2014-01-23 18:53:00
1:53 PM,37.0,16.0,42,30.40,10.0,NE,12.7,19.6,N/A,,Mostly Cloudy,50,2014-01-23 19:53:00
2:53 PM,36.0,16.0,44,30.42,10.0,NNE,15.0,23.0,N/A,,Mostly Cloudy,30,2014-01-23 20:53:00
3:53 PM,35.1,15.1,44,30.45,10.0,NNE,16.1,26.5,N/A,,Mostly Cloudy,30,2014-01-23 21:53:00
4:53 PM,32.0,12.0,44,30.49,10.0,NE,17.3,26.5,N/A,,Mostly Cloudy,40,2014-01-23 22:53:00
5:53 PM,30.0,6.1,36,30.53,10.0,ENE,15.0,-,N/A,,Overcast,60,2014-01-23 23:53:00
6:53 PM,28.0,-0.0,30,30.57,10.0,NE,16.1,-,N/A,,Overcast,40,2014-01-24 00:53:00
7:53 PM,26.1,-8.0,22,30.61,10.0,NE,11.5,-,N/A,,Overcast,40,2014-01-24 01:53:00
8:53 PM,25.0,-9.0,22,30.65,10.0,NE,13.8,-,N/A,,Overcast,40,2014-01-24 02:53:00
9:53 PM,24.1,-11.9,20,30.68,10.0,NE,13.8,-,N/A,,Overcast,40,2014-01-24 03:53:00
10:53 PM,23.0,-14.1,19,30.69,10.0,NE,11.5,-,N/A,,Overcast,40,2014-01-24 04:53:00
11:53 PM,23.0,-13.0,20,30.70,10.0,NE,9.2,-,N/A,,Overcast,40,2014-01-24 05:53:00